TimePST,TemperatureF,Dew PointF,Humidity,Sea Level PressureIn,VisibilityMPH,Wind Direction,Wind SpeedMPH,Gust SpeedMPH,PrecipitationIn,Events,Conditions,WindDirDegrees,DateUTC
12:11 AM,46.4,46.4,100,29.41,10.0,East,3.5,-,0.02,Rain,Light Rain,80,2012-11-30 08:11:00
12:30 AM,48.2,46.4,93,29.41,10.0,East,3.5,-,0.02,Rain,Light Rain,80,2012-11-30 08:30:00
12:39 AM,48.2,46.4,93,29.40,10.0,East,3.5,-,0.02,Rain,Light Rain,90,2012-11-30 08:39:00
12:50 AM,48.2,46.4,93,29.40,10.0,East,4.6,-,0.02,,Overcast,100,2012-11-30 08:50:00
12:53 AM,46.9,46.0,97,29.41,10.0,East,4.6,-,0.02,,Overcast,100,2012-11-30 08:53:00
1:06 AM,48.2,46.4,93,29.40,10.0,East,3.5,-,0.01,Rain,Light Rain,100,2012-11-30 09:06:00
1:53 AM,48.0,46.9,96,29.39,10.0,ENE,4.6,-,0.01,Rain,Light Rain,60,2012-11-30 09:53:00
2:53 AM,48.0,46.9,96,29.38,10.0,ESE,3.5,-,0.01,,Overcast,120,2012-11-30 10:53:00
3:53 AM,50.0,46.0,86,29.36,10.0,SSE,8.1,17.3,0.00,,Overcast,150,2012-11-30 11:53:00
4:53 AM,50.0,46.0,86,29.36,10.0,ESE,6.9,-,N/A,,Mostly Cloudy,120,2012-11-30 12:53:00
5:53 AM,50.0,46.0,86,29.34,10.0,Variable,4.6,-,0.00,Rain,Light Rain,0,2012-11-30 13:53:00
6:53 AM,50.0,46.9,89,29.35,10.0,SSE,10.4,-,0.07,Rain,Light Rain,150,2012-11-30 14:53:00
7:53 AM,48.9,48.0,97,29.37,10.0,SE,6.9,-,0.05,,Overcast,140,2012-11-30 15:53:00
8:53 AM,50.0,48.0,93,29.38,10.0,SE,9.2,-,0.01,Rain,Light Rain,130,2012-11-30 16:53:00
9:53 AM,50.0,48.0,93,29.39,10.0,SE,6.9,-,0.16,Rain,Light Rain,140,2012-11-30 17:53:00
10:53 AM,50.0,48.9,96,29.41,10.0,South,5.8,-,0.11,Rain,Light Rain,170,2012-11-30 18:53:00
11:53 AM,50.0,48.9,96,29.39,10.0,SE,4.6,-,0.16,Rain,Light Rain,130,2012-11-30 19:53:00
12:53 PM,50.0,50.0,100,29.40,9.0,Calm,Calm,-,0.17,Rain,Light Rain,0,2012-11-30 20:53:00
1:07 PM,50.0,48.2,94,29.39,10.0,SE,5.8,-,0.01,Rain,Light Rain,130,2012-11-30 21:07:00
1:25 PM,50.0,50.0,100,29.39,10.0,SE,10.4,18.4,0.03,Rain,Light Rain,140,2012-11-30 21:25:00
1:53 PM,51.1,48.9,92,29.41,10.0,SW,13.8,-,0.08,Rain,Rain,220,2012-11-30 21:53:00
2:04 PM,51.8,46.4,82,29.40,8.0,SSW,15.0,26.5,0.09,Rain,Heavy Rain,210,2012-11-30 22:04:00
2:53 PM,51.1,48.0,89,29.40,10.0,South,9.2,17.3,0.20,Rain,Light Rain,170,2012-11-30 22:53:00
3:53 PM,50.0,48.0,93,29.42,10.0,South,10.4,-,0.07,Rain,Light Rain,170,2012-11-30 23:53:00
4:53 PM,48.9,46.9,93,29.43,10.0,South,10.4,-,0.12,Rain,Rain,180,2012-12-01 00:53:00
5:53 PM,48.9,46.0,90,29.42,10.0,SSW,13.8,-,0.14,Rain,Light Rain,210,2012-12-01 01:53:00
6:53 PM,48.0,46.0,93,29.42,10.0,South,5.8,-,0.10,Rain,Light Rain,170,2012-12-01 02:53:00
7:53 PM,46.9,46.9,100,29.41,10.0,East,4.6,-,0.07,Rain,Light Rain,90,2012-12-01 03:53:00
8:24 PM,46.4,46.4,100,29.39,10.0,ESE,8.1,-,0.03,Rain,Light Rain,120,2012-12-01 04:24:00
8:53 PM,48.2,46.4,93,29.38,10.0,Calm,Calm,-,N/A,Rain,Light Rain,0,2012-12-01 04:53:00
9:53 PM,46.9,46.9,100,29.39,10.0,Calm,Calm,-,0.11,Rain,Rain,0,2012-12-01 05:53:00
10:53 PM,46.9,45.0,93,29.39,10.0,South,6.9,-,0.17,Rain,Light Rain,190,2012-12-01 06:53:00
11:53 PM,46.0,45.0,96,29.38,10.0,Calm,Calm,-,0.01,,Overcast,0,2012-12-01 07:53:00